Flag for United Kingdom Weather past 2 weeks in St. Peter Port, Guernsey, United Kingdom

Now
57 °F

Passing clouds.


Feels Like: 56 °F
Forecast: 60 / 64 °F
Wind: 7 mph from West

Location: Cherbourg / Maupertus

Current Time: Aug 31, 2014 at 1:31:13 AM

Latest Report: Aug 31, 2014 at 1:00 AM


Visibility: N/A

Pressure: 30.09 "Hg

Humidity: 88%

Dew point: 54 °F

Location of St. Peter PortLocation

Historic Weather in St. Peter Port — Graph

°F

St. Peter Port temperature yesterday

Maximum temperature yesterday: 63 °F (at 3:00 PM)
Minimum temperature yesterday: 55 °F (at 8:30 PM)
Average temperature yesterday: 60 °F

Past Weeks' High & Low Weather Summary

 TemperatureHumidityPressure
High70 °F (Aug 28, 1:30 PM)100% (Aug 25, 7:00 AM)30.24 "Hg (Aug 25, 7:00 AM)
Low46 °F (Aug 21, 5:00 AM)49% (Aug 21, 10:30 AM)29.59 "Hg (Aug 26, 5:00 AM)
Average59 °F79%29.97 "Hg
* Reported Midnight between Aug 15 and Aug 16 — Aug 31 12:30 AM, St. Peter Port, Weather by CustomWeather, © 2014

Note: Actual official high and low records may vary slightly from our data, if they occured in-between our weather recording intervals... More about our weather records

Advertising

St. Peter Port weather history for previous 24 hours

 ConditionsComfort  
Time TempWeatherWind HumidityBarometerVisibility
12:30 AM
Aug 31
55 °FPassing clouds.8 mph94%30.09 "HgN/A
12:00 AM55 °FPassing clouds.9 mph94%30.09 "HgN/A
11:30 PM
Aug 30
55 °FClear.8 mph88%30.09 "HgN/A
11:00 PM55 °FClear.7 mph88%30.09 "HgN/A
10:30 PM55 °FClear.6 mph88%30.09 "HgN/A
9:30 PM55 °FClear.7 mph88%30.09 "HgN/A
9:00 PM55 °FClear.8 mph88%30.09 "HgN/A
8:30 PM55 °FClear.8 mph88%30.09 "HgN/A
8:00 PM57 °FClear.9 mph82%30.09 "HgN/A
7:30 PM57 °FScattered clouds.10 mph82%30.09 "HgN/A
7:00 PM59 °FPartly sunny.12 mph82%30.09 "HgN/A
6:30 PM61 °FClear.13 mph72%30.09 "HgN/A
6:00 PM61 °FClear.15 mph72%30.09 "HgN/A
5:30 PM63 °FScattered clouds.15 mph68%30.09 "HgN/A
5:00 PM63 °FPartly sunny.14 mph73%30.09 "HgN/A
4:30 PM63 °FPartly sunny.16 mph73%30.09 "HgN/A
4:00 PM63 °FBroken clouds.16 mph73%30.09 "HgN/A
3:30 PM63 °FPartly sunny.15 mph77%30.09 "HgN/A
3:00 PM63 °FMostly cloudy.12 mph77%30.09 "HgN/A
2:30 PM61 °FMostly cloudy.14 mph83%30.09 "HgN/A
2:00 PM61 °FBroken clouds.15 mph83%30.09 "HgN/A
1:30 PM61 °FBroken clouds.14 mph88%30.09 "HgN/A
1:00 PM59 °FFog.14 mph100%30.09 "Hg3 mi
12:30 PM59 °FLight rain. Fog.16 mph94%30.09 "Hg2 mi
12:00 PM61 °FLow clouds.17 mph88%30.09 "HgN/A
11:30 AM61 °FLow clouds.15 mph94%30.09 "HgN/A
11:00 AM61 °FLight rain. Fog.13 mph94%30.09 "Hg2 mi
10:30 AM61 °FOvercast.15 mph94%30.09 "HgN/A
10:00 AM61 °FLow clouds.15 mph94%30.07 "HgN/A
9:30 AM61 °FLow clouds.15 mph94%30.07 "Hg4 mi
9:00 AM61 °FFog.15 mph94%30.07 "Hg2 mi
8:30 AM59 °FDrizzle. Fog.13 mph100%30.07 "Hg2 mi
8:00 AM59 °FDrizzle. Fog.13 mph94%30.07 "Hg1 mi
7:30 AM59 °FDrizzle. Fog.13 mph100%30.07 "Hg2 mi
7:00 AM59 °FLight rain. Low clouds.14 mph94%30.07 "Hg5 mi
6:30 AM59 °FFog.12 mph94%30.07 "Hg2 mi
6:00 AM59 °FLow clouds.14 mph94%30.07 "Hg5 mi
5:30 AM61 °FOvercast.12 mph88%30.07 "HgN/A
5:00 AM61 °FMostly cloudy.15 mph88%30.04 "HgN/A
4:30 AM61 °FOvercast.14 mph83%30.07 "HgN/A
4:00 AM61 °FOvercast.17 mph83%30.07 "HgN/A
3:30 AM61 °FMostly cloudy.16 mph88%30.07 "HgN/A
3:00 AM61 °FMostly cloudy.15 mph83%30.07 "HgN/A
2:30 AM61 °FMostly cloudy.15 mph88%30.07 "HgN/A
2:00 AM61 °FMostly cloudy.17 mph83%30.07 "HgN/A
1:30 AM61 °FMostly cloudy.16 mph83%30.07 "HgN/A
1:00 AM61 °FMostly cloudy.18 mph88%30.07 "HgN/A
Weather by CustomWeather, © 2014

See weather overviewHow to use our weather pages